[[{"header":{"parameterUnit":"m.s-1","parameterCategory":1,"la1":30.2992,"la2":30.254,"lo1":-89.0895,"lo2":-89.0443,"dy":0.0025,"dx":0.0025,"nx":19,"ny":19,"refTime":"2026-04-11T09:00:00:Z","depth":0,"parameterNumber":2,"parameterNumberName":"U-component_of_WINDS"},"data":[0,0,0,-3.6641,-3.6644,-3.6762,-3.6762,-3.6935,-3.6937,0,0,0,0,0,0,0,0,0,0,0,-3.6619,-3.662,-3.6641,-3.6644,-3.6762,-3.6762,-3.6935,-3.6937,0,0,0,0,0,0,0,0,0,0,0,-3.6618,-3.662,-3.6622,-3.6645,-3.6762,-3.6762,-3.6934,-3.6838,0,0,0,0,0,0,0,0,0,0,-3.672,-3.6711,-3.662,-3.6622,-3.6646,-3.6762,-3.6762,-3.6833,-3.6844,-3.6891,0,-3.6935,0,-3.6939,-3.695,-3.695,0,0,0,-3.6635,-3.6702,-3.6722,-3.6622,-3.6647,-3.6761,-3.6706,-3.6839,-3.6851,-3.6906,-3.6938,-3.6943,-3.6942,-3.6951,-3.6952,-3.7253,-3.7255,0,0,-3.6629,-3.6647,-3.6714,-3.6731,-3.6713,-3.6702,-3.671,-3.6846,-3.6882,-3.6938,-3.6947,-3.6945,-3.6952,-3.6954,-3.7252,-3.7254,0,0,0,-3.6616,-3.6643,-3.6659,-3.6725,-3.6744,-3.6706,-3.6715,-3.6876,-3.688,-3.6949,-3.6947,-3.6953,-3.6956,-3.725,-3.7252,-3.7361,0,0,0,-3.6612,-3.6635,-3.6657,-3.6669,-3.6742,-3.6811,-3.6742,-3.6871,-3.6885,-3.6946,-3.6954,-3.6958,-3.7247,-3.7251,-3.7354,-3.741,0,0,0,-3.6607,-3.6634,-3.6656,-3.667,-3.6721,-3.6809,-3.682,-3.6873,-3.6885,-3.6951,-3.6958,-3.7246,-3.725,-3.7347,-3.7399,-3.7495,0,0,0,-3.6607,-3.675,-3.6658,-3.6817,-3.672,-3.6874,-3.6819,-3.6933,-3.7002,-3.6954,-3.7248,-3.7252,-3.7345,-3.7392,-3.7488,-3.7581,-3.762,0,0,-3.6797,-3.6774,-3.6866,-3.6787,-3.6962,-3.6855,-3.7047,-3.7093,-3.7083,-3.7198,-3.7205,-3.7356,-3.7398,-3.7494,-3.7835,-3.7867,0,0,0,-3.6932,-3.6999,-3.7042,-3.7108,-3.7147,-3.7186,-3.7201,-3.7219,-3.7315,-3.7145,-3.7416,-3.744,-3.7496,-3.7539,-3.7566,-3.7614,-3.7272,-3.7272,-3.7272,-3.7228,-3.7208,-3.736,-3.7354,-3.742,-3.7435,-3.7487,-3.7514,-3.7473,-3.7538,-3.7572,-3.7782,-3.7833,-3.7853,-3.7903,-3.7618,-3.7619,-3.7619,-3.7619,-3.7507,-3.7599,-3.7543,-3.767,-3.7648,-3.7755,-3.7777,-3.7745,-3.7843,-3.7754,-3.7802,-3.7707,-3.7888,-3.7931,-3.7627,-3.7626,-3.7625,-3.7624,-3.7624,-3.7699,-3.774,-3.7758,-3.7854,-3.7931,-3.7921,-3.8018,-3.7994,-3.7973,-3.802,-3.8055,-3.8053,-3.8049,-3.8038,-3.8039,-3.804,-3.804,-3.8041,-3.8041,-3.7892,-3.7909,-3.7993,-3.8048,-3.8089,-3.814,-3.8158,-3.8198,-3.8237,-3.8212,-3.8212,-3.8168,-3.7909,-3.7846,-3.8052,-3.805,-3.8049,-3.8048,-3.8047,-3.8184,-3.8114,-3.8244,-3.8285,-3.8348,-3.8427,-3.8396,-3.848,-3.851,-3.8559,-3.8504,-3.8317,-3.8291,-3.8269,-3.8216,-3.8507,-3.8507,-3.8507,-3.8507,-3.8347,-3.8331,-3.846,-3.8527,-3.8591,-3.8576,-3.8726,-3.8743,-3.8749,-3.8767,-3.8721,-3.8649,-3.8628,-3.8614,-3.8585,-3.8536,-3.8901,-3.8901,-3.8902,-3.8526,-3.8516,-3.8647,-3.8651,-3.8699,-3.8742,-3.8883,-3.8965,-3.8957,-3.8917,-3.8781,-3.8764,-3.8647,-3.861,-3.8567,-3.8523,-3.8431,0,0]},{"header":{"parameterUnit":"m.s-1","parameterCategory":1,"la1":30.2992,"la2":30.254,"lo1":-89.0895,"lo2":-89.0443,"dy":0.0025,"dx":0.0025,"nx":19,"ny":19,"refTime":"2026-04-11T09:00:00:Z","depth":0,"parameterNumber":3,"parameterNumberName":"V-component_of_WINDS"},"data":[0,0,0,0.5759,0.5758,0.5665,0.5665,0.5566,0.5566,0,0,0,0,0,0,0,0,0,0,0,0.5798,0.5797,0.5759,0.5757,0.5665,0.5665,0.5566,0.5565,0,0,0,0,0,0,0,0,0,0,0,0.5798,0.5797,0.5797,0.5757,0.5665,0.5665,0.5567,0.5629,0,0,0,0,0,0,0,0,0,0,0.5716,0.5762,0.5797,0.5797,0.5757,0.5666,0.5665,0.5632,0.5626,0.5616,0,0.561,0,0.5586,0.556,0.556,0,0,0,0.5749,0.5767,0.5732,0.5797,0.5756,0.5666,0.5705,0.5628,0.5621,0.5607,0.5608,0.5604,0.5584,0.556,0.5559,0.5529,0.5529,0,0,0.5755,0.5787,0.5738,0.5728,0.5742,0.5708,0.5702,0.5623,0.5627,0.5608,0.5601,0.5583,0.5559,0.5558,0.5529,0.5529,0,0,0,0.5775,0.5791,0.5758,0.5733,0.5714,0.5705,0.5698,0.563,0.5617,0.56,0.5582,0.5559,0.5558,0.5529,0.5529,0.5573,0,0,0,0.5777,0.5803,0.576,0.5779,0.5716,0.5671,0.5708,0.5622,0.5612,0.5582,0.5558,0.5557,0.5528,0.5529,0.5571,0.559,0,0,0,0.58,0.5805,0.5795,0.5781,0.5743,0.5672,0.5653,0.5619,0.5601,0.556,0.5557,0.5528,0.5529,0.557,0.5587,0.5593,0,0,0,0.5834,0.5836,0.5797,0.5792,0.5744,0.5699,0.5653,0.5618,0.5588,0.5558,0.5528,0.5529,0.5569,0.5585,0.5591,0.5605,0.5613,0,0,0.5855,0.584,0.5834,0.5796,0.5767,0.571,0.5687,0.5628,0.5595,0.5553,0.5552,0.5572,0.5587,0.5592,0.5644,0.5651,0,0,0,0.5852,0.5849,0.5834,0.5806,0.576,0.5723,0.5664,0.5642,0.5605,0.558,0.5573,0.5581,0.5583,0.5588,0.5594,0.5595,0.5532,0.5532,0.5532,0.5932,0.5887,0.5876,0.582,0.5793,0.5732,0.5707,0.5667,0.563,0.5629,0.5618,0.5654,0.5662,0.5666,0.5667,0.5619,0.5619,0.562,0.562,0.5961,0.5951,0.59,0.5871,0.5825,0.58,0.574,0.5715,0.5686,0.5659,0.5659,0.5637,0.5675,0.5674,0.5622,0.5622,0.5622,0.5621,0.5621,0.6011,0.5999,0.597,0.5925,0.5894,0.5837,0.5811,0.5769,0.5729,0.5728,0.5713,0.5712,0.5708,0.5723,0.5723,0.5723,0.5723,0.5723,0.5723,0.6076,0.6042,0.6026,0.5976,0.5952,0.5915,0.5852,0.5827,0.579,0.5761,0.5761,0.5726,0.5685,0.5678,0.5725,0.5725,0.5725,0.5725,0.5725,0.6129,0.6109,0.6084,0.6059,0.5997,0.5971,0.5915,0.5869,0.5842,0.5831,0.5794,0.577,0.5753,0.5748,0.5741,0.5802,0.5802,0.5802,0.5802,0.6173,0.6158,0.6122,0.6087,0.6047,0.5993,0.5967,0.5917,0.5862,0.5843,0.5827,0.5814,0.5811,0.5795,0.5789,0.5783,0.5853,0.5853,0.5853,0.6204,0.6183,0.6169,0.6114,0.6062,0.6018,0.5992,0.5954,0.5888,0.5854,0.5828,0.5826,0.5804,0.5799,0.5769,0.5761,0.5748,0,0]}]]